TimeMST,TemperatureF,Dew PointF,Humidity,Sea Level PressureIn,VisibilityMPH,Wind Direction,Wind SpeedMPH,Gust SpeedMPH,PrecipitationIn,Events,Conditions,WindDirDegrees,DateUTC
12:15 AM,35.6,21.2,56,29.89,10.0,SSW,8.1,-,N/A,,Clear,200,2012-12-05 07:15:00
12:35 AM,35.6,21.2,56,29.88,10.0,South,8.1,-,N/A,,Clear,190,2012-12-05 07:35:00
12:55 AM,35.6,21.2,56,29.87,10.0,South,6.9,-,N/A,,Clear,190,2012-12-05 07:55:00
1:15 AM,35.6,21.2,56,29.86,10.0,South,6.9,-,N/A,,Mostly Cloudy,190,2012-12-05 08:15:00
1:35 AM,35.6,21.2,56,29.85,10.0,South,8.1,-,N/A,,Overcast,180,2012-12-05 08:35:00
1:55 AM,35.6,21.2,56,29.84,10.0,South,9.2,-,N/A,,Overcast,190,2012-12-05 08:55:00
2:15 AM,35.6,21.2,56,29.84,10.0,SSW,8.1,-,N/A,,Mostly Cloudy,200,2012-12-05 09:15:00
2:35 AM,35.6,21.2,56,29.84,10.0,SW,6.9,-,N/A,,Clear,220,2012-12-05 09:35:00
2:55 AM,35.6,21.2,56,29.82,10.0,SSW,8.1,-,N/A,,Clear,210,2012-12-05 09:55:00
3:15 AM,33.8,21.2,60,29.81,10.0,SSW,8.1,-,N/A,,Clear,200,2012-12-05 10:15:00
3:35 AM,33.8,21.2,60,29.80,10.0,SSW,8.1,-,N/A,,Partly Cloudy,200,2012-12-05 10:35:00
3:55 AM,33.8,21.2,60,29.80,10.0,SW,9.2,-,N/A,,Clear,220,2012-12-05 10:55:00
4:15 AM,33.8,21.2,60,29.79,10.0,SSW,6.9,-,N/A,,Clear,210,2012-12-05 11:15:00
4:35 AM,35.6,21.2,56,29.78,10.0,South,6.9,-,N/A,,Clear,190,2012-12-05 11:35:00
4:55 AM,33.8,21.2,60,29.77,10.0,SSW,8.1,-,N/A,,Clear,200,2012-12-05 11:55:00
5:15 AM,33.8,21.2,60,29.77,10.0,South,6.9,-,N/A,,Clear,190,2012-12-05 12:15:00
5:55 AM,35.6,21.2,56,29.76,10.0,SSE,5.8,-,N/A,,Clear,160,2012-12-05 12:55:00
7:55 AM,33.8,23.0,65,29.72,10.0,SSW,10.4,-,N/A,,Clear,210,2012-12-05 14:55:00
8:15 AM,35.6,24.8,65,29.71,10.0,SSW,10.4,-,N/A,,Clear,210,2012-12-05 15:15:00
8:55 AM,37.4,24.8,60,29.70,10.0,South,4.6,-,N/A,,Clear,190,2012-12-05 15:55:00
9:15 AM,39.2,26.6,61,29.70,10.0,South,4.6,-,N/A,,Clear,180,2012-12-05 16:15:00
9:35 AM,39.2,26.6,61,29.69,10.0,SSE,3.5,-,N/A,,Clear,150,2012-12-05 16:35:00
10:15 AM,41.0,26.6,57,29.67,10.0,Calm,Calm,-,N/A,,Clear,0,2012-12-05 17:15:00
10:35 AM,42.8,28.4,57,29.67,10.0,South,8.1,-,N/A,,Clear,190,2012-12-05 17:35:00
10:55 AM,44.6,28.4,53,29.66,10.0,South,9.2,-,N/A,,Clear,180,2012-12-05 17:55:00
11:15 AM,46.4,28.4,50,29.65,10.0,SSW,10.4,-,N/A,,Clear,200,2012-12-05 18:15:00
11:55 AM,48.2,30.2,50,29.63,10.0,SSW,13.8,19.6,N/A,,Clear,200,2012-12-05 18:55:00
12:15 PM,48.2,28.4,46,29.63,10.0,SW,9.2,-,N/A,,Clear,220,2012-12-05 19:15:00
12:35 PM,48.2,30.2,50,29.62,10.0,South,8.1,-,N/A,,Clear,180,2012-12-05 19:35:00
12:55 PM,48.2,30.2,50,29.61,10.0,South,10.4,-,N/A,,Clear,170,2012-12-05 19:55:00
1:15 PM,46.4,30.2,53,29.61,10.0,SSE,11.5,-,N/A,,Clear,160,2012-12-05 20:15:00
1:35 PM,46.4,30.2,53,29.61,10.0,SSW,10.4,-,N/A,,Partly Cloudy,200,2012-12-05 20:35:00
1:55 PM,46.4,28.4,50,29.61,10.0,SSW,10.4,-,N/A,,Scattered Clouds,200,2012-12-05 20:55:00
2:15 PM,46.4,28.4,50,29.61,10.0,SSW,10.4,-,N/A,,Mostly Cloudy,210,2012-12-05 21:15:00
2:35 PM,46.4,28.4,50,29.61,10.0,SSW,8.1,-,N/A,,Mostly Cloudy,200,2012-12-05 21:35:00
2:55 PM,46.4,30.2,53,29.61,10.0,WSW,6.9,-,N/A,,Scattered Clouds,240,2012-12-05 21:55:00
3:15 PM,48.2,30.2,50,29.61,10.0,SW,9.2,-,N/A,,Partly Cloudy,230,2012-12-05 22:15:00
3:35 PM,46.4,30.2,53,29.62,10.0,SW,8.1,-,N/A,,Clear,230,2012-12-05 22:35:00
3:55 PM,48.2,30.2,50,29.63,10.0,WSW,9.2,-,N/A,,Clear,240,2012-12-05 22:55:00
4:15 PM,46.4,30.2,53,29.64,10.0,WSW,9.2,-,N/A,,Clear,250,2012-12-05 23:15:00
4:35 PM,46.4,30.2,53,29.64,10.0,West,9.2,-,N/A,,Clear,260,2012-12-05 23:35:00
5:15 PM,50.0,33.8,54,29.68,10.0,NW,23.0,29.9,N/A,,Clear,310,2012-12-06 00:15:00
5:35 PM,48.2,30.2,50,29.71,10.0,NW,21.9,31.1,N/A,,Clear,310,2012-12-06 00:35:00
5:55 PM,46.4,26.6,46,29.72,10.0,NW,20.7,27.6,N/A,,Clear,320,2012-12-06 00:55:00
6:15 PM,44.6,26.6,49,29.73,10.0,NW,19.6,26.5,N/A,,Clear,320,2012-12-06 01:15:00
6:55 PM,42.8,24.8,49,29.75,10.0,NW,21.9,29.9,N/A,,Partly Cloudy,310,2012-12-06 01:55:00
7:15 PM,41.0,24.8,53,29.77,10.0,NW,20.7,27.6,N/A,,Clear,320,2012-12-06 02:15:00
7:35 PM,39.2,24.8,56,29.78,10.0,NW,17.3,21.9,N/A,,Clear,310,2012-12-06 02:35:00
7:55 PM,39.2,24.8,56,29.79,10.0,NW,17.3,21.9,N/A,,Clear,320,2012-12-06 02:55:00
8:15 PM,39.2,23.0,52,29.80,10.0,NW,21.9,31.1,N/A,,Clear,320,2012-12-06 03:15:00
8:35 PM,37.4,21.2,52,29.81,10.0,NW,19.6,27.6,N/A,,Clear,310,2012-12-06 03:35:00
8:55 PM,39.2,21.2,49,29.82,10.0,WNW,20.7,33.4,N/A,,Clear,300,2012-12-06 03:55:00
9:15 PM,37.4,21.2,52,29.83,10.0,WNW,21.9,27.6,N/A,,Clear,300,2012-12-06 04:15:00
9:35 PM,37.4,19.4,48,29.83,10.0,WNW,21.9,27.6,N/A,,Clear,300,2012-12-06 04:35:00
9:55 PM,37.4,17.6,45,29.84,10.0,WNW,21.9,28.8,N/A,,Clear,300,2012-12-06 04:55:00
10:15 PM,37.4,17.6,45,29.85,10.0,WNW,21.9,28.8,N/A,,Clear,300,2012-12-06 05:15:00
10:35 PM,35.6,17.6,48,29.87,10.0,West,19.6,25.3,N/A,,Clear,280,2012-12-06 05:35:00
10:55 PM,35.6,17.6,48,29.88,10.0,West,19.6,28.8,N/A,,Clear,280,2012-12-06 05:55:00
11:15 PM,35.6,17.6,48,29.86,10.0,WNW,21.9,28.8,N/A,,Clear,290,2012-12-06 06:15:00
11:35 PM,35.6,15.8,44,29.86,10.0,WNW,20.7,27.6,N/A,,Clear,300,2012-12-06 06:35:00
11:55 PM,35.6,17.6,48,29.87,10.0,WNW,19.6,28.8,N/A,,Clear,290,2012-12-06 06:55:00